sat.trackr.live / text

‹ back to catalog

GSAT0205 (GALILEO 9)

NORAD 40889 · 2015-045A

PAYLOAD ACTIVE UNKNOWN

§ Identity

Operator
Country
ESA
Launch date
2015-09-11
Launch site
FRGUI
Launch vehicle
Mass (kg)
RCS (m²)
9.53

Purposes: earth_obs, nav

External: N2YO · Heavens-Above · Gunter

§ Orbital elements

Epoch: 2026-05-24T07:17:44.873376Z

Period
860.17 min
Inclination
54.9357°
Eccentricity
0.0006405
Mean motion
1.67409242 rev/d
Perigee alt
23,563.2 km
Apogee alt
23,601.5 km
Semi-major
29,960.5 km
B*
0.0000e+0
RAAN
222.4171°
Arg perigee
263.0112°
Mean anomaly
96.9692°
Rev number
6,656

§ Raw data

GSAT0205 (GALILEO 9)1 40889U 15045A   26144.30399159 -.00000014  00000+0  00000+0 0  99942 40889  54.9357 222.4171 0006405 263.0112  96.9692  1.67409242 66562

JSON: /api/v1/satellites/40889 · /tle

For live sub-satellite position, see the globe view (requires WebGL).

§ Visibility from observer

Set your observer location to see the next 7 days of passes ≥ 10°. The values pass through the URL so the page stays shareable.

No JS? Fill the form by hand. The geolocation button needs JavaScript.